Grand Junction, CO

2:13 PM MST on November 17, 2019 (GMT -0700)
Walker

Weather History for KGJT - March, 2019

Change the Weather History Date:

Saturday, March 9, 2019

  Actual Average Record
Temperature  
Mean Temperature 38 °F 42 °F  
Max Temperature 46 °F 55 °F 76 °F (1989)
Min Temperature 30 °F 30 °F 14 °F (1964)
Degree Days  
Heating Degree Days 27 23  
Month to date heating degree days 197 215  
Since 1 July heating degree days 4652 4594  
Cooling Degree Days 0 0  
Month to date cooling degree days 0 0  
Year to date cooling degree days 0 0  
Moisture  
Dew Point 28 °F    
Average Humidity 67    
Maximum Humidity 89    
Minimum Humidity 45    
Precipitation  
Precipitation T in 0.03 in 0.57 in (1948)
Month to date precipitation 0.96 0.23  
Year to date precipitation 2.40 1.35  
Snow  
Snow 0.00 in 0.00 in 5.60 in (1948)
Month to date snowfall 0.0 0.7  
Since 1 July snowfall 17.4 16.2  
Snow Depth 0.00 in    
Sea Level Pressure  
Sea Level Pressure 29.86 in    
Wind  
Wind Speed 7 mph (ENE)    
Max Wind Speed 17 mph    
Max Gust Speed 23 mph    
Visibility 10 miles    
Events      
T = Trace of Precipitation, MM = Missing Value Source: NWS Daily Summary

Daily Weather History Graph

Daily Weather History Graph

Search for Another Location

Airport or City:

Astronomy

Mar. 09, 2019 Rise Set
Actual Time 6:34 AM MST 6:14 PM MST
Civil Twilight 6:08 AM MST 6:41 PM MST
Nautical Twilight 5:37 AM MST 7:12 PM MST
Astronomical Twilight 5:06 AM MST 7:43 PM MST
Moon 8:22 AM MST (3/9) 9:16 PM MST (3/9)
Length of Visible Light 12h 33m
Length of Day
11h 39m
Waxing Crescent, 9% of the Moon is Illuminated
Mar 9
Waxing Crescent
Mar 14
First Quarter
Mar 20
Full
Mar 27
Last Quarter
Apr 5
New

Hourly Weather History & Observations

Time (MST) Temp. Windchill Dew Point Humidity Pressure Visibility Wind Dir Wind Speed Gust Speed Precip Events Conditions
12:53 AM 37.0 °F 29.8 °F 30.0 °F 76% 29.67 in 10.0 mi NNW 10.4 mph - N/A   Mostly Cloudy
1:53 AM 35.1 °F 25.2 °F 28.0 °F 76% 29.72 in 10.0 mi NW 16.1 mph - N/A   Clear
2:53 AM 34.0 °F 25.0 °F 27.0 °F 75% 29.74 in 10.0 mi NNW 12.7 mph - N/A   Clear
3:53 AM 33.1 °F 25.5 °F 26.1 °F 75% 29.77 in 10.0 mi NNW 9.2 mph - N/A   Clear
4:53 AM 33.1 °F 26.9 °F 25.0 °F 72% 29.82 in 10.0 mi North 6.9 mph - N/A   Clear
5:53 AM 30.9 °F 27.5 °F 24.1 °F 76% 29.86 in 10.0 mi NE 3.5 mph - N/A   Clear
6:53 AM 30.9 °F 25.2 °F 24.1 °F 76% 29.87 in 10.0 mi NE 5.8 mph - N/A   Clear
7:53 AM 35.1 °F 32.2 °F 26.1 °F 70% 29.89 in 10.0 mi ESE 3.5 mph - N/A   Clear
8:53 AM 37.9 °F 35.5 °F 26.1 °F 62% 29.91 in 10.0 mi East 3.5 mph - N/A   Mostly Cloudy
9:53 AM 41.0 °F - 24.1 °F 51% 29.91 in 10.0 mi Calm Calm - N/A   Scattered Clouds
10:53 AM 42.1 °F 40.2 °F 23.0 °F 47% 29.90 in 10.0 mi Variable 3.5 mph - N/A   Overcast
12:53 PM 44.1 °F 40.8 °F 27.0 °F 51% 29.87 in 10.0 mi East 5.8 mph - N/A   Mostly Cloudy
1:53 PM 45.0 °F 40.1 °F 25.0 °F 46% 29.86 in 10.0 mi SSW 9.2 mph - N/A   Overcast
2:53 PM 44.1 °F 39.5 °F 30.9 °F 60% 29.85 in 10.0 mi North 8.1 mph - N/A   Scattered Clouds
3:53 PM 45.0 °F 41.2 °F 26.1 °F 48% 29.86 in 10.0 mi SW 6.9 mph - N/A   Scattered Clouds
4:53 PM 43.0 °F 38.2 °F 26.1 °F 51% 29.87 in 10.0 mi SSE 8.1 mph - N/A   Overcast
5:53 PM 41.0 °F 33.9 °F 30.0 °F 65% 29.89 in 10.0 mi SE 12.7 mph - N/A   Overcast
6:53 PM 37.9 °F 32.7 °F 32.0 °F 79% 29.92 in 10.0 mi East 6.9 mph - 0.00 in   Overcast
7:53 PM 37.9 °F 34.4 °F 33.1 °F 83% 29.91 in 10.0 mi NE 4.6 mph - N/A   Overcast
8:53 PM 37.9 °F 32.7 °F 33.1 °F 83% 29.91 in 10.0 mi SE 6.9 mph - N/A   Overcast
9:53 PM 36.0 °F 31.1 °F 32.0 °F 86% 29.90 in 10.0 mi ESE 5.8 mph - N/A   Overcast
10:53 PM 36.0 °F 28.5 °F 32.0 °F 86% 29.89 in 10.0 mi ESE 10.4 mph - N/A   Overcast
11:53 PM 35.1 °F 28.6 °F 30.9 °F 85% 29.88 in 10.0 mi ESE 8.1 mph - N/A   Overcast